Temp
6 6 6 6 6 6 6 6 5 5 5 6 6 6 6 6 6 6 6 6 6 6 6 6 6 6 7 7 7 7 7 7 7 8 8 8 9 9 9 9 9 10 10 10 10 10 10 10 10 10 10 10 10 10 10 10 11 11 11 11 11 11 11 11 11 11 11 11 11
5 5 5 5 5 5 5 5 5 5 5 5 5 5 5 5 5 5 5 5 5 5 5 5 5 6 6 6 6 6 6 7 7 7 8 8 8 9 9 9 9 9 9 10 10 10 10 10 10 10 10 10 10 10 10 10 10 11 11 11 11 11 11 11 11 11 11 11 11
4 4 4 4 4 4 5 5 5 5 5 5 5 5 5 5 5 5 5 5 5 5 5 5 5 5 5 5 5 5 6 6 6 7 7 8 8 9 9 9 8 9 9 10 10 10 10 10 10 10 10 10 10 10 10 11 11 11 11 11 11 11 11 11 11 11 11 11 11
3 3 3 3 4 4 4 4 4 4 4 3 3 4 4 4 4 4 4 4 4 4 4 4 4 4 4 4 4 5 5 5 6 6 7 7 8 8 9 9 8 8 9 9 10 10 10 10 10 10 10 10 10 10 10 10 10 10 11 11 11 11 10 10 11 11 11 11 11
2 2 2 2 3 3 3 3 3 3 2 2 2 3 3 3 3 3 3 3 3 3 3 3 3 3 4 4 4 4 5 4 5 6 6 7 7 8 8 8 8 8 9 9 9 10 10 10 9 9 10 10 10 10 10 10 10 10 10 10 10 10 11 11 11 11 11 11 11
1 1 1 1 1 1 1 2 2 2 2 2 2 2 2 2 2 2 2 3 2 2 2 2 3 3 3 3 4 4 4 4 5 5 6 6 7 8 8 7 7 7 8 8 9 9 10 10 10 10 10 10 10 10 10 10 10 10 10 10 10 10 10 11 11 11 11 11 11
1 1 1 1 1 1 1 1 1 1 2 2 2 2 2 2 2 2 2 2 2 2 2 2 2 2 3 3 3 4 4 4 5 5 5 6 6 6 6 6 6 7 7 8 8 9 9 9 9 9 9 10 10 10 10 10 10 10 10 10 10 10 10 10 11 11 11 11 11
0 0 0 0 0 1 1 1 1 1 1 1 1 1 1 1 1 1 1 2 2 2 2 2 2 2 2 2 3 3 3 3 4 4 4 5 5 5 5 5 5 6 6 6 7 8 8 8 8 9 9 9 9 9 9 9 9 9 9 9 9 10 10 10 10 10 10 11 11
-0 -0 0 0 0 0 0 0 1 1 1 1 1 1 1 0 1 1 1 1 1 1 2 1 1 2 2 2 2 2 3 3 3 3 4 4 4 4 4 4 4 4 5 5 6 6 6 7 7 7 7 7 8 8 8 8 8 8 8 8 8 9 9 9 10 10 10 10 10
-0 -0 -0 -0 -0 -0 0 0 0 0 0 0 0 0 0 0 0 1 0 0 0 1 1 1 1 1 2 2 2 2 2 3 3 3 3 3 3 4 4 4 3 3 3 4 4 5 5 6 5 5 6 6 6 7 7 7 7 7 7 7 7 7 8 8 9 9 9 9 10
-0 -0 -1 -1 -1 -1 -0 -0 -0 -0 -0 -0 -0 -0 -0 -0 -0 -0 -0 -0 0 0 0 0 0 1 1 1 2 2 2 2 3 3 3 3 3 3 3 3 3 3 3 3 3 4 4 4 4 4 5 5 5 5 6 6 6 6 6 5 5 6 7 7 8 8 8 8 9
-0 -0 -0 -1 -1 -1 -1 -1 -1 -1 -1 -1 -1 -1 -1 -1 -1 -1 -1 -1 -0 -0 -0 -0 -0 -0 0 0 1 1 1 2 2 2 3 3 3 3 2 2 2 2 2 2 3 3 3 4 4 4 4 4 4 4 4 5 5 4 4 4 4 5 6 6 7 7 7 7 7
-0 -0 -0 -1 -1 -1 -1 -1 -1 -1 -1 -1 -1 -1 -1 -1 -1 -1 -1 -1 -1 -1 -1 -1 -1 -1 -1 -0 -0 0 0 1 1 1 2 2 3 2 2 2 2 1 2 2 2 3 3 3 3 4 4 4 3 3 3 4 4 4 4 4 4 4 5 5 5 5 5 5 6
-1 -1 -1 -1 -1 -1 -1 -2 -2 -2 -2 -2 -2 -2 -2 -2 -2 -2 -2 -1 -1 -1 -1 -1 -1 -1 -1 -1 -1 -1 -1 -0 0 1 1 2 2 1 1 1 1 1 1 1 2 2 2 3 3 3 3 3 3 3 3 3 3 3 3 3 3 4 4 4 4 4 4 5 5
-1 -1 -1 -1 -1 -1 -1 -2 -2 -2 -2 -2 -2 -2 -2 -2 -2 -2 -2 -2 -2 -2 -2 -2 -1 -1 -1 -1 -1 -1 -1 -0 0 1 1 1 1 0 -0 -0 -0 0 1 1 1 2 2 2 2 2 2 2 2 2 2 2 2 2 2 2 2 3 3 3 3 4 4 4 4
-1 -1 -2 -2 -2 -2 -2 -2 -2 -2 -2 -2 -2 -3 -2 -2 -2 -2 -2 -2 -2 -2 -2 -2 -2 -2 -1 -1 -1 -1 -1 -0 0 0 0 0 -0 -1 -1 -1 -1 -0 -0 0 1 1 1 1 1 1 1 1 1 1 1 1 1 1 1 1 1 1 2 2 2 2 3 3 4
-2 -2 -2 -2 -2 -2 -2 -2 -2 -2 -2 -3 -3 -3 -3 -3 -3 -3 -3 -2 -2 -2 -2 -2 -2 -2 -1 -1 -1 -1 -1 -0 -0 -0 -0 -1 -1 -1 -1 -1 -1 -1 -1 -0 -0 0 0 0 0 0 0 0 0 0 -0 -0 -0 -0 -0 -0 0 0 0 1 1 1 1 2 3
-2 -2 -2 -2 -2 -2 -2 -2 -2 -3 -3 -3 -3 -3 -3 -3 -3 -3 -3 -3 -3 -2 -2 -2 -2 -1 -1 -1 -1 -1 -1 -1 -1 -1 -1 -1 -1 -2 -2 -2 -2 -2 -1 -1 -1 -1 -1 -1 -1 -1 -1 -1 -1 -1 -1 -1 -1 -1 -1 -1 -1 -1 -1 -0 -0 0 0 0 1
-1 -2 -2 -2 -2 -2 -2 -3 -3 -3 -3 -3 -3 -3 -3 -3 -3 -3 -3 -3 -3 -3 -2 -2 -2 -1 -1 -1 -1 -1 -1 -2 -2 -2 -2 -2 -2 -2 -2 -2 -2 -2 -2 -2 -2 -2 -2 -2 -2 -2 -2 -2 -2 -2 -2 -2 -2 -2 -2 -2 -2 -2 -1 -1 -1 -1 -1 -1 -1
-1 -1 -2 -2 -2 -2 -2 -3 -3 -3 -3 -3 -3 -3 -3 -3 -3 -3 -3 -3 -3 -2 -2 -2 -2 -2 -1 -1 -1 -2 -2 -2 -2 -2 -2 -2 -2 -2 -2 -2 -2 -2 -2 -2 -2 -2 -2 -2 -2 -2 -2 -2 -2 -2 -2 -2 -2 -2 -2 -2 -2 -2 -2 -2 -2 -2 -1 -1 -1
-1 -1 -2 -2 -2 -2 -2 -3 -3 -3 -3 -3 -3 -3 -3 -3 -3 -3 -3 -3 -2 -2 -2 -2 -2 -2 -2 -2 -2 -2 -2 -2 -2 -2 -2 -2 -2 -2 -2 -3 -3 -2 -2 -2 -2 -2 -2 -2 -2 -2 -2 -2 -2 -2 -2 -3 -3 -3 -3 -3 -3 -3 -3 -2 -2 -2 -2 -2 -2
-1 -1 -2 -2 -2 -2 -2 -2 -3 -3 -3 -3 -3 -3 -3 -3 -3 -3 -2 -2 -2 -2 -2 -2 -2 -2 -2 -2 -2 -2 -2 -2 -2 -2 -2 -2 -2 -2 -2 -3 -3 -3 -2 -3 -3 -3 -2 -2 -2 -2 -2 -2 -2 -2 -2 -2 -2 -2 -2 -2 -3 -3 -3 -3 -3 -3 -2 -2 -2
-1 -1 -1 -2 -2 -2 -2 -2 -2 -2 -2 -2 -2 -2 -2 -2 -2 -2 -2 -2 -2 -2 -2 -2 -2 -2 -2 -2 -2 -2 -2 -2 -1 -1 -1 -1 -1 -1 -2 -2 -2 -2 -2 -2 -2 -2 -2 -2 -2 -2 -2 -2 -2 -2 -2 -2 -2 -2 -2 -2 -2 -2 -2 -2 -3 -3 -3 -3 -3
-1 -1 -1 -1 -1 -1 -2 -2 -2 -2 -2 -2 -2 -2 -2 -1 -1 -1 -1 -1 -2 -2 -2 -2 -2 -2 -2 -2 -2 -2 -1 -1 -1 -1 -1 -1 -1 -1 -1 -1 -2 -2 -2 -2 -2 -2 -2 -2 -2 -2 -2 -2 -1 -1 -1 -2 -1 -1 -1 -1 -1 -2 -2 -2 -2 -2 -2 -2 -2
-1 -1 -1 -1 -1 -1 -1 -1 -1 -1 -1 -1 -1 -1 -1 -1 -1 -1 -1 -1 -1 -2 -2 -2 -2 -2 -2 -2 -2 -2 -1 -1 -1 -1 -1 -1 -1 -1 -1 -1 -2 -2 -3 -3 -3 -2 -2 -2 -2 -2 -2 -1 -1 -1 -1 -1 -1 -1 -1 -1 -1 -1 -1 -1 -1 -1 -2 -2 -2
-1 -1 -1 -1 -1 -1 -1 -1 -1 -1 -1 -1 -1 -1 -1 -1 -1 -1 -1 -1 -2 -2 -2 -2 -2 -2 -2 -2 -2 -2 -2 -2 -1 -1 -1 -1 -1 -1 -1 -2 -3 -4 -4 -3 -3 -2 -2 -2 -2 -2 -2 -2 -1 -1 -1 -1 -1 -1 -1 -1 -1 -1 -1 -1 -1 -1 -1 -1 -1
-1 -1 -1 -1 -1 -1 -1 -1 -1 -1 -1 -1 -1 -1 -1 -1 -1 -2 -2 -2 -2 -2 -2 -2 -2 -2 -2 -2 -2 -2 -2 -2 -2 -2 -2 -2 -2 -2 -2 -3 -4 -5 -5 -4 -3 -3 -3 -3 -3 -3 -2 -2 -2 -2 -1 -1 -1 -1 -1 -1 -1 -1 -1 -1 -1 -1 -1 -1 -1
-1 -1 -1 -1 -1 -1 -1 -1 -1 -1 -1 -1 -1 -1 -1 -2 -2 -2 -2 -2 -2 -2 -2 -2 -2 -2 -2 -2 -2 -2 -2 -2 -2 -3 -3 -3 -3 -3 -3 -4 -5 -5 -6 -5 -5 -4 -3 -3 -3 -3 -3 -3 -2 -2 -2 -2 -2 -2 -2 -1 -1 -1 -1 -1 -1 -1 -1 -2 -2
-1 -1 -1 -0 -1 -1 -1 -1 -1 -1 -1 -1 -1 -1 -1 -1 -1 -1 -1 -1 -1 -2 -2 -2 -2 -2 -2 -2 -3 -3 -3 -3 -3 -3 -3 -3 -3 -3 -4 -4 -5 -5 -6 -6 -6 -5 -4 -4 -4 -4 -3 -3 -3 -3 -2 -2 -2 -2 -2 -2 -2 -2 -2 -2 -2 -2 -2 -2 -2
-1 -1 -0 -0 -1 -1 -1 -1 -1 -1 -1 -1 -1 -1 -1 -1 -1 -1 -1 -1 -1 -2 -2 -2 -2 -2 -2 -3 -3 -3 -3 -3 -3 -3 -3 -4 -4 -4 -4 -4 -5 -6 -6 -6 -6 -6 -5 -4 -4 -4 -4 -3 -3 -3 -3 -3 -3 -3 -3 -3 -3 -3 -3 -3 -2 -2 -2 -2 -2
-1 -1 -0 -0 -1 -1 -1 -1 -1 -1 -1 -1 -1 -1 -1 -1 -1 -1 -1 -1 -2 -2 -2 -2 -2 -2 -3 -3 -3 -3 -3 -3 -3 -4 -4 -4 -4 -4 -4 -4 -5 -6 -6 -6 -6 -6 -6 -5 -4 -4 -4 -4 -3 -3 -3 -3 -3 -3 -4 -4 -4 -4 -3 -3 -3 -3 -3 -3 -2
-1 -1 -1 -1 -1 -1 -1 -1 -1 -1 -1 -1 -1 -1 -1 -1 -1 -1 -2 -2 -2 -2 -2 -2 -2 -3 -3 -3 -3 -3 -4 -4 -4 -4 -4 -4 -4 -4 -4 -4 -5 -6 -6 -6 -6 -7 -6 -6 -5 -5 -4 -4 -4 -4 -4 -4 -4 -4 -4 -4 -4 -4 -4 -4 -4 -4 -4 -4 -3
-1 -1 -1 -1 -1 -1 -1 -1 -1 -1 -1 -1 -1 -1 -1 -1 -2 -2 -2 -2 -2 -2 -2 -3 -3 -3 -3 -4 -4 -4 -4 -5 -5 -5 -5 -5 -5 -5 -5 -5 -5 -6 -6 -6 -6 -7 -7 -6 -6 -5 -4 -4 -4 -4 -4 -4 -4 -4 -4 -4 -4 -4 -4 -5 -5 -5 -5 -5 -4
-1 -1 -1 -1 -1 -1 -1 -1 -1 -1 -1 -1 -1 -1 -1 -2 -2 -2 -2 -2 -3 -3 -3 -3 -3 -4 -4 -4 -4 -5 -5 -5 -5 -6 -6 -5 -5 -5 -5 -5 -5 -6 -7 -7 -7 -7 -7 -7 -7 -6 -5 -4 -4 -4 -4 -4 -4 -4 -4 -4 -4 -4 -5 -5 -5 -5 -5 -5 -5
-1 -1 -1 -1 -1 -1 -1 -2 -2 -2 -1 -1 -1 -1 -2 -2 -2 -2 -2 -3 -3 -3 -3 -3 -4 -4 -4 -4 -5 -5 -5 -6 -6 -6 -6 -6 -6 -6 -6 -6 -6 -6 -7 -7 -7 -7 -7 -7 -7 -7 -6 -5 -5 -4 -4 -5 -5 -5 -5 -5 -5 -5 -5 -5 -5 -5 -5 -5 -5
-2 -2 -2 -1 -1 -1 -2 -2 -2 -2 -1 -1 -1 -2 -2 -2 -2 -2 -3 -3 -3 -3 -3 -4 -4 -4 -4 -5 -5 -5 -6 -6 -6 -7 -7 -7 -6 -6 -6 -6 -6 -6 -7 -7 -7 -7 -7 -7 -7 -7 -7 -6 -5 -5 -5 -5 -6 -6 -6 -6 -6 -6 -6 -6 -6 -6 -6 -6 -6
-2 -2 -2 -2 -2 -2 -2 -2 -2 -2 -2 -2 -2 -2 -2 -2 -2 -3 -3 -3 -3 -3 -3 -4 -4 -4 -5 -5 -6 -6 -6 -7 -7 -7 -7 -7 -7 -7 -7 -6 -6 -6 -7 -7 -7 -7 -7 -7 -7 -7 -7 -6 -5 -5 -5 -6 -6 -6 -6 -6 -6 -6 -6 -6 -6 -6 -7 -7 -7
-2 -2 -2 -2 -2 -2 -2 -2 -2 -2 -2 -2 -2 -2 -2 -2 -3 -3 -3 -3 -4 -4 -4 -5 -5 -5 -6 -6 -6 -6 -7 -7 -7 -7 -7 -6 -6 -6 -6 -6 -5 -5 -5 -6 -7 -7 -6 -6 -6 -6 -5 -4 -4 -4 -4 -5 -5 -5 -5 -5 -5 -6 -6 -6 -6 -6 -7 -7 -7
-3 -3 -3 -3 -3 -2 -2 -2 -2 -2 -2 -3 -3 -3 -3 -3 -4 -4 -4 -4 -5 -5 -5 -6 -6 -6 -6 -6 -6 -6 -6 -6 -6 -6 -5 -5 -5 -5 -5 -4 -4 -4 -4 -4 -5 -5 -5 -4 -4 -4 -4 -3 -3 -3 -3 -3 -3 -4 -4 -4 -4 -4 -4 -5 -5 -5 -6 -6 -7
-3 -3 -3 -3 -3 -3 -3 -3 -3 -3 -3 -4 -4 -4 -4 -4 -5 -5 -5 -5 -5 -6 -6 -6 -6 -6 -5 -5 -5 -5 -5 -5 -4 -4 -4 -4 -4 -3 -3 -3 -3 -3 -3 -3 -3 -4 -4 -4 -4 -4 -4 -3 -3 -3 -3 -3 -3 -2 -2 -2 -2 -3 -3 -3 -4 -4 -5 -5 -5
-3 -3 -4 -4 -4 -4 -4 -4 -4 -4 -4 -4 -5 -5 -5 -5 -5 -5 -5 -5 -5 -5 -5 -5 -5 -5 -4 -4 -4 -4 -4 -3 -3 -3 -3 -3 -3 -3 -3 -3 -3 -3 -3 -3 -3 -4 -4 -4 -4 -4 -4 -4 -4 -4 -3 -3 -3 -3 -3 -2 -2 -2 -2 -3 -3 -3 -4 -4 -5
Height
1447 1447 1447 1448 1448 1448 1449 1449 1449 1449 1449 1449 1449 1450 1450 1450 1450 1450 1450 1450 1450 1450 1450 1449 1449 1449 1448 1448 1448 1447 1447 1447 1447 1447 1446 1446 1446 1446 1446 1446 1446 1446 1446 1446 1447 1446 1446 1446 1446 1446 1447 1448 1449 1449 1450 1451 1451 1451 1450 1450 1450 1450 1451 1452 1452 1452 1452 1452 1452
1447 1447 1448 1448 1448 1449 1449 1449 1449 1449 1449 1449 1449 1449 1450 1450 1450 1450 1450 1450 1449 1449 1449 1449 1448 1448 1447 1447 1447 1446 1446 1446 1445 1445 1445 1444 1444 1444 1445 1445 1445 1445 1444 1444 1445 1445 1445 1445 1444 1444 1445 1445 1446 1446 1447 1448 1448 1448 1448 1448 1448 1448 1449 1449 1449 1450 1450 1450 1451
1448 1448 1448 1448 1449 1449 1449 1449 1449 1449 1449 1449 1449 1449 1449 1449 1449 1449 1449 1449 1449 1449 1448 1448 1447 1447 1447 1446 1446 1446 1445 1445 1444 1444 1443 1443 1443 1443 1443 1443 1444 1444 1443 1443 1443 1443 1443 1443 1443 1442 1442 1442 1442 1443 1443 1443 1443 1444 1445 1446 1446 1447 1447 1447 1447 1447 1448 1448 1448
1448 1448 1448 1449 1449 1449 1449 1449 1449 1449 1449 1449 1449 1449 1449 1449 1449 1449 1449 1448 1448 1448 1448 1447 1447 1447 1446 1446 1445 1445 1444 1444 1443 1442 1442 1442 1442 1442 1442 1442 1443 1443 1442 1441 1441 1441 1441 1442 1441 1441 1441 1441 1441 1442 1442 1442 1443 1443 1443 1443 1443 1443 1444 1444 1445 1446 1446 1447 1446
1449 1449 1449 1449 1449 1449 1449 1449 1449 1449 1449 1449 1449 1449 1449 1449 1449 1448 1448 1448 1448 1447 1447 1447 1447 1446 1446 1445 1445 1444 1444 1443 1442 1442 1441 1440 1440 1440 1440 1441 1442 1442 1441 1440 1438 1438 1438 1439 1440 1440 1439 1439 1439 1440 1440 1440 1441 1441 1440 1440 1441 1441 1441 1441 1442 1442 1443 1444 1444
1450 1450 1450 1450 1450 1450 1449 1450 1449 1449 1449 1449 1449 1449 1449 1449 1449 1449 1448 1448 1448 1447 1447 1447 1447 1446 1445 1445 1444 1443 1443 1442 1441 1440 1440 1439 1438 1439 1440 1441 1441 1440 1439 1438 1437 1437 1437 1437 1437 1437 1437 1437 1438 1438 1438 1438 1438 1438 1439 1439 1439 1439 1440 1440 1440 1439 1439 1439 1439
1452 1452 1452 1452 1452 1451 1451 1451 1451 1450 1450 1450 1450 1450 1450 1450 1449 1449 1449 1448 1448 1448 1447 1447 1447 1446 1445 1444 1444 1443 1442 1442 1440 1440 1439 1438 1438 1438 1439 1439 1439 1438 1437 1436 1436 1435 1435 1435 1435 1435 1435 1436 1436 1436 1436 1437 1437 1437 1437 1437 1437 1437 1437 1437 1437 1437 1437 1437 1437
1453 1453 1453 1453 1453 1453 1452 1452 1452 1452 1451 1451 1451 1451 1451 1451 1450 1450 1449 1449 1448 1448 1448 1447 1447 1446 1445 1445 1444 1443 1442 1441 1440 1439 1438 1438 1438 1438 1438 1438 1437 1437 1436 1435 1435 1434 1433 1433 1433 1434 1434 1434 1434 1434 1434 1435 1436 1436 1436 1435 1435 1435 1435 1435 1435 1435 1435 1435 1436
1454 1454 1454 1454 1454 1454 1454 1453 1453 1453 1452 1452 1452 1452 1452 1451 1451 1450 1450 1449 1449 1449 1448 1448 1447 1447 1446 1445 1444 1443 1442 1441 1440 1439 1439 1438 1438 1437 1437 1437 1437 1436 1435 1434 1433 1433 1432 1432 1433 1433 1432 1432 1432 1432 1433 1433 1434 1434 1433 1433 1433 1433 1433 1433 1433 1433 1433 1433 1433
1455 1455 1455 1455 1455 1455 1455 1454 1454 1454 1453 1453 1453 1453 1452 1452 1452 1451 1451 1450 1450 1449 1449 1448 1447 1447 1446 1445 1444 1443 1442 1442 1441 1440 1439 1438 1438 1437 1437 1437 1437 1436 1435 1434 1432 1432 1432 1432 1432 1432 1432 1432 1432 1432 1432 1432 1433 1433 1432 1432 1432 1432 1431 1431 1431 1431 1431 1431 1430
1457 1456 1456 1456 1456 1455 1455 1455 1455 1454 1454 1454 1454 1453 1453 1452 1452 1452 1452 1451 1451 1450 1449 1448 1448 1447 1446 1445 1444 1443 1442 1442 1441 1440 1440 1439 1438 1437 1437 1437 1437 1437 1435 1434 1433 1432 1432 1432 1431 1431 1431 1431 1431 1431 1431 1431 1432 1432 1432 1432 1431 1431 1430 1429 1429 1429 1429 1428 1428
1458 1458 1457 1457 1457 1456 1456 1455 1455 1455 1455 1455 1454 1454 1454 1453 1453 1453 1453 1452 1451 1450 1450 1449 1448 1447 1446 1445 1444 1443 1442 1442 1441 1441 1440 1439 1438 1438 1438 1438 1438 1437 1436 1434 1433 1432 1432 1432 1431 1431 1431 1431 1431 1431 1431 1431 1431 1432 1432 1431 1431 1430 1429 1428 1428 1428 1427 1426 1426
1459 1459 1458 1458 1458 1457 1457 1456 1456 1456 1456 1456 1455 1455 1455 1455 1454 1454 1453 1452 1452 1451 1450 1450 1449 1448 1447 1446 1445 1444 1443 1442 1442 1441 1440 1439 1439 1439 1439 1439 1439 1438 1436 1435 1434 1433 1432 1432 1431 1431 1431 1431 1431 1431 1431 1431 1431 1431 1431 1431 1430 1429 1428 1428 1427 1427 1426 1425 1424
1460 1460 1459 1459 1459 1459 1458 1457 1457 1457 1457 1457 1456 1456 1456 1456 1455 1455 1454 1453 1453 1452 1451 1450 1450 1448 1447 1447 1446 1445 1444 1443 1442 1441 1440 1439 1439 1440 1440 1440 1439 1438 1437 1435 1434 1433 1432 1431 1431 1431 1431 1431 1431 1431 1431 1431 1431 1431 1431 1431 1430 1428 1427 1427 1427 1426 1425 1424 1424
1461 1461 1460 1460 1460 1460 1459 1459 1458 1458 1458 1457 1457 1457 1457 1456 1456 1456 1455 1455 1454 1453 1452 1451 1450 1449 1448 1447 1447 1445 1444 1443 1442 1441 1440 1440 1440 1441 1441 1441 1440 1438 1437 1435 1434 1433 1432 1432 1432 1432 1432 1432 1432 1432 1432 1431 1431 1431 1431 1430 1429 1428 1427 1427 1426 1426 1425 1424 1423
1462 1462 1462 1461 1461 1461 1460 1460 1460 1459 1459 1459 1458 1458 1457 1457 1457 1457 1456 1455 1455 1454 1453 1452 1451 1450 1449 1448 1447 1445 1444 1443 1442 1442 1441 1441 1442 1442 1442 1441 1440 1438 1437 1436 1434 1433 1433 1432 1432 1432 1432 1432 1432 1432 1432 1431 1431 1431 1431 1430 1429 1428 1427 1427 1426 1425 1425 1424 1423
1463 1463 1462 1462 1462 1462 1462 1461 1461 1461 1460 1460 1459 1459 1458 1458 1457 1457 1456 1456 1455 1454 1453 1452 1452 1451 1449 1448 1447 1445 1444 1443 1443 1442 1442 1442 1442 1442 1442 1441 1440 1439 1437 1436 1435 1434 1434 1433 1433 1433 1433 1433 1432 1432 1432 1432 1431 1431 1430 1430 1429 1428 1427 1427 1427 1426 1425 1424 1422
1464 1464 1464 1463 1463 1463 1463 1462 1462 1462 1462 1461 1461 1460 1460 1459 1458 1458 1457 1456 1456 1455 1454 1453 1452 1451 1449 1448 1447 1446 1445 1444 1444 1443 1443 1443 1443 1443 1442 1442 1441 1439 1438 1437 1436 1435 1435 1434 1434 1434 1433 1433 1432 1432 1432 1432 1431 1431 1430 1429 1429 1428 1428 1427 1426 1426 1425 1424 1423
1466 1465 1465 1464 1464 1464 1464 1463 1463 1463 1462 1462 1462 1461 1461 1460 1459 1458 1457 1457 1456 1455 1454 1453 1452 1451 1450 1448 1447 1446 1446 1445 1445 1444 1444 1444 1443 1443 1442 1442 1441 1440 1439 1437 1437 1436 1436 1435 1435 1434 1434 1433 1433 1433 1432 1432 1432 1431 1430 1430 1429 1428 1428 1427 1426 1425 1425 1424 1423
1467 1466 1466 1466 1465 1465 1465 1465 1464 1464 1463 1463 1462 1462 1462 1461 1460 1459 1458 1457 1456 1455 1454 1453 1452 1451 1450 1449 1448 1447 1447 1446 1446 1445 1445 1444 1443 1443 1442 1442 1441 1440 1439 1438 1437 1437 1436 1436 1436 1435 1435 1434 1434 1433 1433 1433 1432 1432 1431 1430 1429 1428 1427 1427 1426 1425 1424 1424 1423
1468 1467 1467 1467 1467 1466 1466 1466 1465 1465 1464 1464 1463 1462 1462 1461 1460 1459 1458 1457 1457 1456 1455 1454 1453 1452 1451 1450 1449 1448 1448 1447 1447 1446 1445 1444 1443 1442 1442 1442 1441 1441 1440 1439 1438 1437 1437 1437 1436 1436 1435 1435 1435 1434 1434 1433 1433 1432 1431 1430 1429 1428 1427 1426 1426 1425 1424 1423 1423
1469 1469 1468 1468 1467 1467 1467 1467 1466 1466 1465 1464 1464 1463 1462 1462 1461 1460 1459 1458 1457 1456 1455 1454 1453 1453 1452 1451 1450 1449 1449 1448 1448 1447 1446 1445 1444 1443 1442 1442 1442 1441 1440 1439 1439 1438 1437 1437 1437 1436 1436 1435 1435 1435 1434 1434 1433 1432 1431 1430 1429 1428 1427 1426 1425 1425 1424 1423 1422
1470 1470 1470 1469 1469 1468 1468 1467 1467 1466 1466 1465 1464 1464 1463 1462 1461 1460 1459 1459 1458 1457 1456 1455 1454 1453 1453 1452 1451 1451 1450 1449 1449 1448 1447 1446 1445 1443 1442 1442 1442 1441 1440 1440 1439 1439 1438 1438 1437 1437 1437 1436 1436 1435 1435 1434 1433 1432 1431 1430 1429 1428 1427 1426 1425 1424 1424 1423 1422
1472 1471 1471 1470 1470 1469 1469 1468 1467 1467 1466 1466 1465 1464 1463 1462 1462 1461 1460 1459 1458 1457 1456 1456 1455 1454 1454 1453 1452 1451 1451 1450 1449 1448 1447 1447 1445 1444 1443 1442 1442 1442 1442 1441 1441 1441 1440 1440 1439 1439 1438 1438 1437 1437 1436 1435 1434 1433 1432 1432 1431 1430 1428 1427 1426 1425 1424 1423 1422
1473 1472 1472 1471 1471 1470 1470 1469 1468 1467 1467 1466 1465 1465 1464 1463 1462 1461 1460 1459 1459 1458 1457 1456 1455 1455 1454 1453 1452 1452 1451 1450 1449 1448 1448 1447 1446 1445 1444 1443 1442 1442 1442 1443 1443 1442 1442 1441 1441 1440 1440 1439 1438 1438 1437 1437 1436 1435 1434 1433 1432 1431 1430 1429 1428 1427 1425 1424 1423
1474 1473 1472 1472 1472 1471 1470 1469 1469 1468 1467 1467 1466 1465 1464 1463 1462 1462 1461 1460 1459 1458 1457 1457 1456 1455 1454 1453 1453 1452 1451 1450 1449 1449 1448 1447 1446 1445 1444 1443 1443 1443 1444 1444 1443 1443 1442 1442 1441 1440 1440 1439 1439 1438 1437 1437 1436 1435 1434 1433 1432 1431 1430 1429 1428 1427 1426 1425 1424
1475 1474 1473 1472 1472 1471 1471 1470 1469 1468 1468 1467 1466 1465 1464 1464 1463 1462 1461 1460 1459 1458 1457 1457 1456 1455 1454 1453 1453 1452 1451 1450 1450 1449 1448 1447 1447 1445 1444 1444 1444 1445 1445 1445 1444 1443 1442 1442 1441 1441 1440 1439 1439 1438 1437 1437 1436 1435 1434 1433 1432 1431 1430 1429 1428 1427 1426 1425 1424
1475 1474 1474 1473 1472 1472 1471 1470 1469 1469 1468 1467 1466 1466 1465 1464 1463 1462 1461 1460 1459 1458 1457 1457 1456 1455 1455 1454 1453 1452 1452 1451 1450 1449 1448 1448 1447 1446 1445 1445 1445 1446 1446 1445 1444 1443 1442 1442 1441 1441 1440 1439 1438 1437 1437 1436 1435 1434 1433 1432 1431 1430 1429 1428 1427 1427 1426 1425 1424
1476 1475 1474 1473 1473 1472 1471 1471 1470 1469 1468 1467 1467 1466 1465 1464 1463 1462 1461 1460 1459 1458 1458 1457 1457 1456 1455 1454 1453 1452 1452 1451 1450 1450 1449 1448 1447 1447 1446 1446 1446 1446 1446 1445 1444 1443 1442 1442 1441 1441 1440 1439 1438 1437 1436 1435 1434 1433 1432 1431 1431 1430 1429 1428 1427 1426 1425 1424 1423
1476 1475 1474 1474 1473 1472 1471 1471 1470 1469 1468 1468 1467 1466 1465 1464 1463 1462 1462 1461 1460 1459 1458 1457 1457 1456 1455 1454 1454 1453 1452 1452 1451 1450 1449 1449 1448 1447 1447 1446 1446 1447 1447 1446 1445 1443 1442 1442 1441 1440 1439 1438 1437 1436 1435 1434 1433 1432 1432 1431 1430 1429 1428 1427 1427 1426 1425 1424 1423
1476 1475 1474 1474 1473 1472 1471 1471 1470 1469 1468 1468 1467 1466 1465 1464 1463 1462 1462 1461 1460 1459 1459 1458 1457 1456 1455 1455 1454 1453 1452 1452 1451 1450 1450 1449 1448 1448 1447 1447 1446 1447 1447 1446 1445 1443 1442 1441 1441 1440 1439 1438 1437 1436 1435 1434 1433 1432 1431 1430 1429 1428 1427 1427 1426 1425 1424 1423 1422
1476 1475 1475 1474 1473 1472 1471 1471 1470 1469 1469 1468 1467 1466 1465 1464 1463 1463 1462 1461 1460 1460 1459 1458 1457 1456 1456 1455 1454 1453 1452 1452 1451 1450 1450 1449 1449 1448 1447 1447 1446 1447 1447 1446 1445 1443 1442 1441 1440 1439 1439 1438 1437 1436 1435 1433 1432 1432 1431 1430 1429 1428 1427 1426 1425 1424 1423 1422 1422
1476 1475 1474 1474 1473 1472 1471 1471 1470 1469 1468 1468 1467 1466 1465 1464 1463 1463 1462 1461 1460 1460 1459 1458 1457 1456 1456 1455 1454 1453 1453 1452 1451 1451 1450 1449 1449 1448 1448 1447 1446 1446 1447 1446 1445 1444 1442 1440 1439 1438 1438 1437 1436 1435 1434 1433 1432 1431 1430 1429 1428 1428 1427 1426 1425 1424 1423 1422 1421
1476 1475 1474 1473 1473 1472 1471 1471 1470 1469 1468 1467 1467 1466 1465 1464 1463 1462 1462 1461 1460 1459 1458 1458 1457 1456 1456 1455 1454 1454 1453 1452 1451 1451 1450 1449 1449 1448 1448 1447 1446 1446 1446 1446 1445 1444 1442 1441 1439 1438 1437 1437 1436 1435 1434 1432 1432 1431 1430 1429 1428 1427 1426 1426 1425 1424 1423 1422 1421
1476 1475 1474 1473 1472 1472 1471 1470 1470 1469 1468 1467 1466 1466 1465 1464 1463 1462 1462 1461 1460 1459 1459 1458 1457 1457 1456 1455 1454 1454 1453 1452 1451 1451 1450 1449 1449 1448 1447 1447 1446 1445 1446 1446 1445 1444 1443 1442 1440 1438 1436 1435 1434 1433 1432 1432 1431 1430 1429 1428 1427 1427 1426 1425 1424 1423 1422 1422 1421
1475 1475 1474 1473 1472 1472 1471 1470 1469 1469 1468 1467 1466 1465 1465 1464 1463 1462 1462 1461 1460 1460 1459 1458 1457 1457 1456 1455 1454 1453 1453 1452 1451 1450 1450 1449 1448 1448 1447 1446 1446 1445 1445 1445 1445 1444 1443 1442 1440 1438 1436 1434 1433 1432 1432 1431 1430 1429 1428 1427 1427 1426 1425 1424 1423 1422 1421 1421 1420
1475 1475 1474 1473 1472 1472 1471 1470 1469 1469 1468 1467 1466 1465 1465 1464 1463 1462 1462 1461 1460 1459 1459 1458 1457 1456 1456 1455 1454 1453 1452 1452 1451 1450 1449 1448 1448 1447 1447 1446 1445 1444 1444 1444 1444 1443 1442 1441 1440 1438 1436 1434 1433 1432 1431 1430 1429 1428 1427 1427 1426 1425 1424 1423 1422 1421 1420 1419 1419
1475 1475 1474 1473 1472 1472 1471 1470 1469 1469 1468 1467 1466 1465 1465 1464 1463 1462 1462 1461 1460 1459 1458 1457 1457 1456 1455 1454 1454 1453 1452 1452 1451 1450 1449 1448 1447 1447 1447 1446 1445 1444 1443 1443 1443 1442 1441 1441 1439 1438 1436 1434 1433 1432 1431 1430 1429 1428 1427 1426 1425 1424 1423 1422 1421 1420 1419 1418 1418
1475 1474 1474 1473 1472 1472 1471 1470 1469 1468 1467 1467 1466 1465 1464 1463 1462 1462 1461 1460 1459 1458 1457 1457 1456 1455 1455 1454 1454 1453 1452 1452 1451 1450 1449 1449 1448 1447 1447 1446 1445 1444 1444 1443 1443 1442 1441 1440 1439 1438 1436 1435 1433 1432 1432 1431 1429 1428 1427 1426 1425 1424 1423 1422 1421 1420 1419 1418 1417
1475 1474 1473 1473 1472 1471 1470 1469 1468 1468 1467 1466 1465 1464 1463 1462 1462 1461 1460 1459 1458 1458 1457 1456 1456 1455 1455 1454 1454 1453 1453 1452 1452 1451 1450 1449 1449 1448 1447 1447 1446 1445 1444 1443 1442 1442 1441 1440 1439 1438 1437 1435 1434 1433 1432 1431 1430 1428 1427 1426 1425 1424 1423 1422 1421 1420 1419 1418 1417
1475 1474 1473 1472 1472 1471 1470 1469 1468 1467 1466 1465 1464 1463 1462 1462 1461 1460 1460 1459 1458 1458 1457 1457 1456 1456 1455 1455 1454 1454 1453 1452 1452 1451 1451 1450 1449 1448 1448 1447 1446 1445 1444 1443 1442 1442 1441 1440 1439 1438 1437 1435 1434 1433 1432 1431 1429 1428 1427 1426 1425 1424 1423 1422 1421 1420 1419 1418 1417
Wind_Speed
3 2 3 4 5 5 6 6 5 5 5 6 6 8 9 10 11 12 14 16 16 16 17 18 19 21 22 24 25 26 26 27 27 28 28 28 28 28 28 28 28 28 29 29 28 25 23 21 20 20 20 21 23 25 27 29 29 31 34 35 33 32 32 32 32 33 33 32 32
6 5 3 2 2 2 2 2 2 2 3 4 5 7 9 10 11 13 15 16 15 15 15 15 16 18 19 21 22 23 23 24 25 25 26 26 26 27 27 27 28 27 27 27 27 26 23 21 19 18 18 17 17 18 19 21 23 25 28 29 30 30 31 31 32 32 32 32 32
8 7 5 4 3 2 2 2 2 3 4 5 6 7 8 9 10 12 12 12 12 12 12 12 14 15 16 17 18 19 19 20 20 21 22 23 24 25 26 28 29 28 26 26 26 26 25 24 22 20 19 19 19 19 20 21 22 23 24 24 25 26 27 29 30 31 32 32 33
8 7 6 5 4 3 3 3 4 5 6 6 6 6 6 5 5 5 5 5 6 6 7 8 9 10 11 12 14 15 15 14 15 15 17 19 21 22 24 27 29 29 27 25 25 26 26 26 24 23 22 22 22 21 22 22 22 23 24 24 24 23 23 23 25 27 29 31 32
10 9 8 6 4 2 1 1 1 1 0 0 1 1 2 2 3 4 4 4 3 2 1 0 1 2 3 5 7 8 8 7 8 11 13 16 16 17 19 23 25 25 24 22 22 24 25 26 26 26 26 25 25 24 24 24 25 25 26 26 26 26 26 25 23 23 23 25 27
16 15 14 12 10 9 9 9 9 9 9 8 9 9 10 10 10 10 10 10 10 9 9 8 8 7 6 4 3 3 2 2 3 5 7 10 13 16 17 17 16 16 16 17 18 20 22 23 24 25 26 26 26 26 26 26 27 27 28 28 28 29 29 29 29 28 27 27 27
22 21 20 19 18 17 17 16 16 15 15 14 15 15 15 15 15 14 14 14 13 13 12 12 12 12 11 10 9 8 7 5 4 2 1 2 5 6 7 7 7 7 8 10 12 15 17 19 20 21 22 22 23 24 25 26 27 26 25 26 28 29 30 30 31 32 32 32 33
25 24 23 22 21 21 21 20 19 18 18 18 18 18 18 17 17 16 15 14 14 14 14 14 14 14 13 12 12 11 11 10 10 8 7 6 5 4 4 3 3 3 3 3 5 7 10 13 14 15 16 16 17 19 21 22 22 19 17 20 24 27 29 30 31 32 32 33 34
26 25 24 23 22 22 21 20 20 19 19 20 20 20 20 20 19 18 17 17 17 16 16 16 16 16 15 14 14 13 13 13 13 13 12 11 10 9 8 8 9 9 8 7 5 3 2 5 6 7 9 9 10 12 15 16 13 11 12 15 18 22 25 27 28 28 29 30 31
26 25 24 24 23 22 22 21 21 21 21 21 21 21 21 21 21 20 20 20 19 18 18 18 18 18 17 17 17 16 16 16 15 15 14 14 13 12 12 12 13 14 14 12 10 8 6 6 4 2 4 4 5 6 8 10 6 7 9 10 12 14 17 20 22 23 24 25 25
25 25 24 24 23 23 22 22 22 22 22 22 22 22 22 22 22 22 21 21 20 20 20 20 20 20 20 20 19 19 18 18 17 17 17 16 15 15 15 15 16 17 17 16 14 12 11 11 11 10 9 7 6 5 4 5 3 2 3 4 5 7 9 12 16 17 18 18 19
24 24 23 23 22 22 22 22 22 22 21 21 21 21 21 21 21 21 21 21 22 22 22 21 21 21 21 21 21 20 20 20 19 19 18 18 17 17 18 19 19 20 19 19 17 15 14 14 14 13 13 13 12 10 9 7 5 4 4 3 1 1 4 6 9 11 11 11 12
24 23 23 22 22 21 22 22 21 21 21 21 21 20 21 20 20 20 21 21 22 22 22 22 22 22 22 22 21 21 21 21 21 20 20 19 19 20 20 21 22 22 22 22 20 19 18 17 16 15 15 15 15 14 13 12 10 10 10 10 8 6 4 3 2 2 2 4 5
23 23 23 22 21 21 21 21 21 20 20 20 20 20 20 20 20 20 20 21 22 22 22 22 22 22 22 22 21 21 21 21 21 21 21 21 21 21 22 23 23 24 24 24 23 22 21 21 19 18 18 18 18 18 18 17 16 15 15 15 15 14 12 10 10 8 6 4 3
22 22 22 22 21 21 21 21 20 20 20 19 19 19 19 19 20 20 20 21 21 21 22 22 22 22 22 22 22 22 22 22 22 22 22 22 22 22 23 23 24 25 25 25 25 24 24 24 24 23 22 21 21 22 22 21 21 20 20 19 19 19 18 17 17 15 13 10 8
21 21 21 21 21 21 21 20 20 20 19 19 19 19 19 19 19 20 20 21 21 21 22 22 22 22 23 23 23 23 23 23 22 22 22 22 22 22 23 23 24 25 25 25 26 26 26 26 26 26 25 25 25 25 25 25 24 24 23 23 23 22 22 21 21 21 19 16 14
20 20 20 20 20 20 20 20 20 19 19 19 19 18 19 19 19 20 20 21 21 22 22 22 23 23 23 24 24 24 24 24 24 23 22 22 21 22 22 23 24 24 25 25 26 27 27 27 27 27 27 27 27 27 27 27 26 26 26 25 25 25 25 24 24 24 23 22 20
20 20 20 20 20 20 19 19 19 19 19 19 19 19 19 19 19 20 20 21 21 22 22 22 23 23 24 24 25 25 25 25 24 23 22 21 21 21 22 22 23 24 24 25 26 27 28 28 28 27 27 27 28 28 27 27 27 27 27 26 26 26 26 26 26 25 25 24 24
19 19 19 19 19 19 19 19 19 19 19 19 19 19 19 19 19 20 21 21 22 22 22 22 23 23 24 25 25 26 26 25 24 23 22 21 21 21 22 22 22 23 24 25 26 26 27 27 27 27 27 27 27 27 27 27 27 27 27 26 26 26 26 26 26 26 25 25 25
19 19 19 19 19 19 19 18 18 18 19 19 19 19 19 20 20 21 21 22 22 22 22 23 23 23 24 24 25 26 26 25 24 23 23 22 22 22 22 22 22 22 23 24 25 25 26 27 27 27 27 27 27 27 27 27 27 27 26 26 26 26 25 25 25 25 25 25 25
18 18 18 18 18 18 18 18 18 18 18 19 19 19 20 20 21 22 22 22 22 23 23 23 23 23 24 24 25 25 25 25 24 24 23 23 23 23 23 23 22 22 23 24 24 25 26 26 26 27 27 26 26 26 26 26 26 27 27 26 26 26 26 25 25 25 25 25 25
18 18 18 18 18 18 18 18 18 18 18 19 19 19 20 20 21 22 22 22 23 23 24 24 24 24 24 24 24 24 24 24 24 24 24 23 24 24 24 24 23 23 23 24 24 25 25 26 26 26 26 26 26 26 26 26 26 26 27 27 27 27 26 26 26 25 25 25 25
17 17 17 17 17 17 17 18 18 18 18 18 19 19 19 20 21 21 22 22 23 23 24 24 24 24 24 24 24 24 24 24 24 24 24 24 24 24 25 25 24 24 24 25 25 25 25 25 26 26 26 26 25 25 25 25 25 26 26 26 26 27 27 27 27 26 26 26 25
16 16 16 16 17 17 17 17 17 18 18 18 19 19 19 19 20 20 21 22 22 23 24 24 24 24 24 24 24 24 24 24 24 24 24 24 24 24 25 25 25 25 25 24 24 24 24 25 25 25 24 24 24 24 23 24 24 24 24 25 25 25 26 26 26 27 27 26 26
16 16 16 16 16 16 16 16 17 17 17 18 18 18 18 19 19 20 20 21 22 23 23 23 24 24 24 24 24 24 24 24 24 24 24 24 24 24 24 25 25 25 24 23 23 23 24 24 24 24 23 23 23 23 23 23 23 23 23 23 24 24 24 24 25 25 26 26 26
15 15 15 15 15 15 15 16 16 16 17 17 17 17 18 18 19 19 20 21 22 22 23 23 23 23 24 24 24 24 25 25 25 25 26 26 26 25 25 26 25 24 23 21 22 23 24 24 24 24 23 23 23 23 23 23 23 23 23 23 24 24 24 24 24 24 24 24 24
16 15 15 15 15 15 15 15 15 16 16 16 17 17 18 18 19 19 20 21 21 22 22 23 23 23 23 24 24 24 25 25 25 26 26 27 27 27 27 26 25 23 21 21 21 23 24 25 24 24 24 24 24 24 24 24 24 24 24 25 25 25 25 25 25 25 25 24 24
16 16 16 15 15 16 16 15 15 15 16 16 16 17 17 18 18 19 19 20 20 21 22 22 22 22 23 23 24 24 24 24 25 25 26 26 27 27 27 26 24 22 21 20 21 23 24 25 24 24 24 24 24 25 25 25 25 25 26 26 26 26 26 26 26 26 26 25 25
16 16 16 16 16 16 16 16 16 16 16 16 16 16 16 17 17 18 19 19 20 21 21 22 22 22 22 23 23 23 23 23 24 24 25 25 25 26 26 25 24 22 20 20 21 23 24 25 25 24 24 24 25 25 26 26 26 26 27 27 27 27 27 27 27 27 27 27 26
16 16 15 16 16 16 16 16 16 16 16 15 15 15 15 16 16 17 18 18 19 20 20 20 21 21 22 22 22 22 22 22 22 23 24 24 24 24 24 24 23 21 20 21 21 22 24 25 25 24 24 25 25 26 26 26 27 27 27 27 28 28 28 28 28 28 28 27 27
15 15 15 15 15 16 16 16 16 16 16 15 15 15 15 15 16 17 17 18 18 19 19 19 20 20 21 21 20 20 20 21 21 22 22 22 22 22 22 22 22 21 20 20 21 22 23 24 25 24 24 25 25 26 26 26 27 27 27 27 27 27 27 28 28 28 28 28 28
15 15 15 15 15 16 16 16 16 16 16 15 15 15 15 16 16 16 17 17 18 18 18 19 19 19 19 19 19 19 19 19 19 20 20 20 20 20 20 21 21 20 19 20 20 21 23 24 25 24 24 24 25 25 25 26 26 26 27 27 27 27 27 27 27 27 27 27 27
15 15 15 15 15 15 15 16 16 16 15 15 15 15 16 16 16 16 17 17 17 17 18 18 18 18 18 18 17 17 17 17 17 17 18 19 18 18 18 19 20 19 18 19 19 21 22 24 25 25 24 24 25 25 25 25 26 26 26 26 26 26 26 26 26 26 26 26 26
15 15 15 15 15 15 15 15 15 15 15 15 15 15 16 16 16 16 17 17 17 17 17 17 17 17 17 16 16 15 15 15 15 15 16 17 17 16 16 17 18 18 17 18 18 19 21 22 24 25 25 25 25 25 25 25 26 26 26 26 26 26 26 26 26 26 25 25 25
16 16 15 15 15 15 15 15 15 15 15 15 15 15 16 16 16 16 16 17 17 17 17 17 17 16 16 15 15 14 14 13 13 13 14 16 16 16 15 16 16 17 17 17 17 18 19 20 22 23 25 26 26 26 26 26 26 26 26 26 26 26 26 26 26 26 25 25 25
16 16 16 16 15 15 15 15 15 14 14 15 15 15 15 15 15 16 16 16 16 16 16 16 16 15 15 14 14 13 12 11 11 12 13 15 15 15 15 15 15 16 17 16 17 18 19 19 20 22 24 26 26 27 26 26 26 26 26 26 26 26 26 26 26 26 26 26 25
16 16 16 15 15 15 15 14 14 14 14 14 14 14 14 14 14 15 15 15 15 15 16 16 15 15 14 13 12 11 11 11 11 11 13 14 15 16 16 16 16 16 17 17 17 18 19 19 20 22 24 26 27 27 27 26 26 26 26 26 26 27 27 27 27 27 26 26 25
16 15 15 15 15 14 14 14 13 13 13 13 13 13 13 13 14 14 14 15 15 15 16 16 16 15 15 13 12 11 11 12 12 13 14 15 16 17 17 17 17 17 17 17 17 18 19 19 21 22 24 25 26 26 26 26 25 26 26 27 27 28 28 28 28 28 28 27 26
15 15 15 14 14 14 13 13 13 13 13 13 13 13 13 14 14 14 15 15 16 16 16 16 16 16 15 14 13 13 13 13 14 15 16 17 17 18 18 18 18 18 17 17 17 18 18 19 20 21 23 24 24 24 24 24 24 25 26 26 27 28 28 29 29 30 29 29 28
15 15 15 14 14 14 13 13 13 13 13 13 13 14 14 14 15 15 16 16 16 17 17 16 16 16 16 16 15 15 15 15 16 17 17 17 17 17 17 17 17 17 17 17 17 17 17 18 19 20 22 23 23 22 22 22 23 24 25 25 26 27 28 28 29 29 30 30 29
15 15 15 15 14 14 14 14 14 14 14 14 14 15 15 15 15 16 16 16 16 16 17 17 17 17 16 17 17 16 16 16 16 16 16 16 16 16 16 16 16 16 16 16 16 17 17 18 18 19 21 22 22 21 21 21 22 23 24 24 25 26 27 27 27 28 28 29 29
Wind_Direction
120 166 201 211 214 215 217 223 232 242 254 264 273 280 284 287 288 289 289 287 284 280 277 274 273 273 274 275 276 277 278 278 279 279 279 279 279 279 281 283 282 275 267 262 263 265 265 260 253 247 244 244 246 249 251 255 260 263 264 262 258 254 251 249 248 247 247 247 246
72 72 78 99 126 151 170 184 208 244 268 277 282 284 285 286 287 288 287 286 285 283 280 278 277 275 275 275 276 276 277 277 277 277 277 277 277 278 280 284 285 277 265 256 256 260 264 263 257 250 243 239 238 240 244 248 252 256 258 258 258 257 255 254 252 252 252 251 250
55 49 42 38 31 23 15 5 343 323 311 303 296 290 287 286 284 283 282 282 282 281 280 280 279 279 278 278 278 278 277 276 275 275 275 275 276 277 279 282 285 282 271 257 252 254 258 261 260 256 251 246 243 241 242 243 245 247 250 252 254 256 258 259 259 259 258 257 255
48 35 20 11 356 338 325 319 309 300 297 298 295 289 283 279 274 270 266 265 266 270 274 277 278 279 279 278 277 276 276 276 275 273 272 273 276 279 280 280 282 280 273 261 251 248 251 255 258 258 256 253 251 250 250 250 251 252 253 255 255 256 256 257 260 261 262 262 261
64 59 55 54 51 51 60 85 152 181 169 96 153 158 152 145 138 137 141 146 144 137 126 144 231 261 266 267 265 263 266 277 273 270 270 271 275 279 280 278 276 272 266 259 249 245 245 248 250 251 252 252 253 253 254 255 256 258 260 262 262 262 260 258 256 254 255 257 258
77 78 79 80 84 92 96 96 100 104 106 108 115 117 114 110 108 108 108 107 102 99 96 95 96 97 101 109 131 164 185 214 248 259 264 268 270 270 270 269 263 257 253 251 247 242 239 239 240 241 242 245 248 251 253 255 257 258 260 261 262 261 261 261 258 256 254 252 252
81 82 83 85 87 90 93 94 95 97 100 101 101 98 95 93 92 91 90 90 90 88 86 85 84 85 86 89 95 101 105 110 116 134 202 240 251 251 248 243 235 230 234 243 242 238 234 234 234 235 236 238 241 245 248 251 253 255 257 257 256 257 257 258 257 257 256 255 254
80 80 80 80 82 83 85 87 88 89 89 87 84 81 79 78 78 77 78 78 75 72 71 70 70 71 73 75 79 82 85 87 90 93 95 98 105 112 118 122 131 142 161 199 216 228 235 237 237 238 239 239 240 242 245 247 249 251 254 254 254 254 254 254 255 255 254 253 252
76 76 75 75 74 74 74 76 77 77 77 75 73 71 69 68 67 66 65 63 63 63 62 60 60 60 61 62 63 65 66 68 72 75 79 82 86 87 86 82 79 80 85 95 112 134 200 224 237 240 238 239 239 241 243 243 245 247 250 251 251 250 250 250 250 250 250 249 247
72 72 71 70 69 69 69 69 69 69 69 68 67 65 64 62 60 58 57 56 57 57 56 54 53 52 52 51 50 50 50 51 52 55 58 63 67 70 70 66 64 63 64 70 80 94 114 130 105 132 195 207 211 222 227 226 234 242 243 244 242 241 241 242 243 245 246 246 244
68 68 68 68 67 67 66 65 64 64 63 63 62 60 59 58 56 55 53 53 52 51 50 48 47 46 45 44 43 43 42 42 41 40 41 43 47 49 49 48 48 49 51 55 63 72 81 87 88 93 98 99 105 118 144 168 175 211 229 231 225 224 226 232 239 243 245 245 244
65 65 65 66 66 66 65 63 62 61 60 59 58 57 56 55 54 53 51 50 49 48 47 45 43 42 41 41 40 39 39 39 37 35 34 34 33 33 32 32 33 34 38 42 46 51 55 59 62 64 67 69 71 73 77 85 86 71 51 43 47 216 225 235 244 246 246 245 242
65 64 63 63 63 64 64 64 63 61 59 58 57 56 56 55 54 52 51 50 49 48 47 45 43 41 40 39 38 38 38 38 37 35 34 32 30 27 25 25 25 26 28 32 35 37 38 39 41 42 43 44 45 46 48 50 51 45 39 34 30 21 1 337 315 287 258 247 240
66 65 63 62 62 63 64 65 65 64 62 61 59 58 57 56 54 53 52 51 51 50 49 47 45 43 42 41 40 39 39 38 36 34 33 33 31 29 28 27 25 24 23 25 27 28 29 28 28 28 27 26 26 25 26 27 28 28 27 25 25 25 25 23 24 24 22 20 23
68 67 67 65 64 64 65 67 68 68 67 65 63 61 60 59 57 56 55 54 54 53 51 50 49 47 46 45 43 41 39 37 35 33 32 32 32 32 32 31 30 27 25 23 23 24 24 24 23 21 20 19 18 16 15 15 16 16 17 17 18 19 19 19 18 15 13 11 14
71 71 70 69 68 68 69 70 71 72 71 70 68 66 64 63 62 61 60 59 57 55 54 52 51 49 48 47 45 42 40 38 35 34 33 33 34 35 35 35 34 31 29 26 25 24 24 23 22 20 19 18 16 15 13 12 11 11 11 11 11 12 12 11 11 10 9 5 3
72 72 72 72 71 71 71 72 73 74 74 73 71 70 69 68 67 66 65 63 61 58 56 54 52 51 49 48 46 44 42 41 39 38 37 37 38 39 39 39 37 35 34 32 31 29 27 26 25 23 22 21 19 17 15 13 12 11 10 9 8 8 8 7 6 6 5 2 358
72 72 72 72 72 72 72 73 73 74 74 74 73 72 72 71 71 70 69 66 64 61 59 56 54 52 51 50 48 47 46 45 44 43 42 42 43 43 44 43 41 39 38 37 36 35 33 31 29 28 27 26 25 22 20 18 17 15 12 11 9 8 8 7 6 5 5 3 357
71 71 71 71 71 72 72 72 73 73 73 73 73 72 72 72 71 71 70 69 66 64 61 58 56 55 54 53 52 51 50 49 49 48 47 47 47 48 47 46 44 43 41 41 40 39 37 35 33 32 32 31 30 29 27 26 24 21 19 16 14 12 11 10 9 8 6 4 359
70 70 71 71 72 72 72 72 73 73 73 73 72 71 71 70 69 69 68 68 67 65 63 60 58 56 55 55 55 55 54 53 52 51 51 51 51 52 51 50 48 46 45 44 43 42 40 38 36 34 33 33 33 33 32 30 29 28 26 23 21 18 16 14 12 10 8 6 2
69 70 71 72 73 73 74 74 73 73 73 73 72 71 70 69 68 66 66 65 65 65 64 62 60 58 57 56 57 57 56 55 53 53 53 54 55 55 54 52 51 49 48 47 45 44 42 40 38 36 34 33 34 34 33 32 31 30 29 28 26 23 21 18 16 13 11 9 6
68 69 70 71 72 73 74 74 74 74 73 73 72 70 69 68 67 66 65 63 63 62 62 61 60 59 57 57 57 57 57 55 54 53 53 55 57 58 57 55 52 51 49 48 46 44 42 40 38 35 34 32 33 32 32 30 29 28 28 28 27 25 24 22 20 18 15 13 10
67 69 70 70 71 72 73 73 73 73 72 71 70 69 68 66 65 64 63 62 61 60 60 60 59 58 57 56 56 56 56 55 53 51 51 52 55 58 58 57 54 52 50 48 46 44 42 40 38 36 34 32 32 32 31 29 28 26 26 25 24 24 23 22 21 20 18 17 15
66 68 68 69 69 70 70 70 70 69 68 67 66 65 64 63 62 62 61 60 59 58 58 57 57 57 56 55 54 54 53 53 51 50 48 48 50 53 56 57 55 53 51 49 47 45 43 41 39 37 35 33 33 33 33 32 30 28 27 25 24 23 23 21 20 19 17 16 15
66 66 67 67 67 67 66 66 65 64 63 62 61 60 59 58 58 58 58 58 57 56 55 55 54 53 53 52 51 51 50 50 49 48 47 46 46 48 51 53 52 49 46 45 44 43 41 40 38 37 35 33 33 33 33 32 31 30 28 26 25 24 23 22 21 20 18 17 15
64 65 65 64 64 63 62 61 60 59 59 58 57 56 55 54 54 54 54 54 54 54 53 52 51 50 49 48 48 47 47 46 46 46 45 44 44 45 47 49 48 45 40 37 38 39 38 36 34 33 32 30 30 29 30 30 28 27 25 24 23 22 21 20 20 20 19 18 17
61 61 61 61 61 59 58 57 56 55 54 53 53 52 51 51 50 49 49 50 50 50 49 49 48 47 46 45 44 43 43 43 43 43 43 42 42 43 45 47 46 41 35 30 30 32 33 33 31 30 28 27 26 26 26 26 25 23 22 21 20 19 18 17 17 16 16 16 16
58 58 58 58 57 56 55 54 53 52 51 50 49 49 48 47 47 46 45 45 45 45 45 45 45 44 43 42 40 40 40 40 41 41 41 41 40 41 44 46 45 40 32 26 24 24 26 28 28 27 25 24 23 23 23 22 21 20 19 19 18 17 16 15 14 13 13 13 13
54 53 53 54 53 53 52 51 49 48 47 46 46 45 45 44 43 42 42 41 41 41 41 41 41 41 40 39 38 37 37 37 39 40 40 39 39 39 42 44 44 38 30 24 20 18 19 22 24 24 23 21 21 21 20 20 19 18 17 16 16 15 14 13 12 11 10 9 10
48 48 48 49 49 49 48 47 46 45 44 43 42 42 41 40 40 39 39 39 38 38 38 38 37 38 38 37 35 34 34 35 36 37 38 38 37 37 39 42 42 37 28 22 17 13 13 16 20 21 20 19 18 18 18 17 16 15 15 14 14 13 12 11 10 9 7 7 6
43 43 43 43 44 44 43 43 42 41 40 39 39 38 38 38 38 37 37 37 37 36 36 35 35 35 35 35 34 33 32 32 33 35 36 35 35 35 37 40 41 36 28 20 15 11 9 11 15 17 18 16 16 16 16 15 14 14 13 13 12 12 11 10 9 8 6 5 5
39 38 38 38 39 39 39 38 37 36 36 35 35 35 35 36 36 35 35 35 35 34 34 34 34 34 34 33 32 32 31 31 31 32 33 33 34 34 35 37 40 37 29 21 16 11 8 6 9 12 14 14 14 14 13 13 12 12 12 11 11 10 10 9 8 7 6 5 4
35 34 34 34 34 35 35 34 33 33 32 31 32 32 33 33 33 33 33 33 33 33 33 33 33 33 33 33 33 32 32 31 30 29 29 30 32 33 33 36 40 39 32 22 18 13 9 5 4 6 9 11 11 11 11 11 10 10 9 9 9 9 8 8 7 7 6 6 5
32 31 31 31 31 31 31 30 29 29 28 28 29 29 30 31 31 31 31 30 30 30 31 32 32 33 33 33 33 33 32 31 29 26 25 26 30 31 32 35 39 42 38 27 20 16 12 7 2 1 3 7 8 9 9 9 8 8 7 7 6 6 6 6 6 6 5 5 5
29 29 28 28 28 28 28 27 26 26 26 26 26 27 28 28 29 30 30 29 28 28 29 30 31 32 32 32 32 33 32 30 27 24 22 24 28 30 32 35 39 43 42 33 24 20 18 12 5 360 360 3 6 8 8 8 8 7 6 5 5 5 4 4 4 4 4 4 4
27 26 26 26 26 26 25 24 24 23 23 24 24 25 26 26 27 28 28 27 26 26 27 29 30 31 32 33 33 34 34 32 28 24 22 23 26 29 32 34 38 41 41 36 26 22 21 17 10 3 359 1 4 7 8 9 8 7 5 4 4 4 4 3 3 3 3 3 3
26 25 25 25 24 24 24 23 22 22 22 22 23 24 24 25 26 26 26 26 25 25 26 27 30 32 34 35 38 40 39 35 30 26 23 23 25 26 28 29 31 33 34 32 25 20 19 17 12 5 360 359 1 4 6 7 6 4 3 2 2 2 2 2 2 1 1 2 3
25 25 24 24 24 23 23 22 22 22 22 22 23 23 23 24 25 26 26 26 26 26 27 28 31 33 36 39 42 42 39 33 28 24 22 20 20 20 20 20 20 20 22 22 18 14 12 11 8 2 357 356 357 359 360 1 1 360 359 359 359 359 359 359 359 359 359 359 0
24 24 24 24 24 24 23 23 23 24 24 24 24 24 24 25 26 27 27 27 27 28 28 29 31 33 34 36 36 35 31 26 21 17 15 15 14 12 11 10 9 9 9 10 9 7 5 4 3 359 354 352 352 353 354 355 356 356 355 355 355 356 356 356 356 356 355 355 356
24 24 24 24 25 25 25 25 25 25 25 26 26 26 26 27 28 28 27 27 27 27 26 26 26 26 25 24 24 22 20 16 13 11 9 8 7 6 4 4 3 3 3 3 3 3 2 1 1 358 355 351 351 352 353 353 353 353 353 352 352 352 352 352 352 352 352 352 352
23 23 24 24 25 26 27 27 27 26 25 25 26 27 27 26 26 26 25 25 24 23 21 19 16 14 12 11 10 9 9 8 6 5 5 4 4 4 4 4 4 3 3 3 3 4 4 4 4 2 359 355 353 353 354 354 353 352 351 351 351 350 349 349 349 349 349 349 349